User: anonymous   Login
Location: Vancouver
(49.2500°N, 123.1330°W)
Time: 02:37:42
(UTC-07:00)
Language:

Iridium 35 - Orbit

View from above orbital plane
View from above orbital plane
View from above satellite
View from above satellite

Ground track
Ground track

The orbit data is extracted from the following two-line orbital elements,

1 24966U 97056B   14294.28300908  .00000856  00000-0  29867-3 0   360
2 24966 086.3992 004.1213 0002259 109.7514 250.3926 14.34215431893513
Epoch (UTC): 21 October 2014 06:47:31
Eccentricity: 0.0002259
inclination: 86.3992°
perigee height: 776 km
apogee height: 779 km
right ascension of ascending node: 4.1213°
argument of perigee: 109.7514°
revolutions per day: 14.34215431
mean anomaly at epoch: 250.3926°
orbit number at epoch: 89351

The dashed part of the orbit path shows where the satellite is in the earth's shadow,  

DLR